Location: Glencliff
(36.1226°N, 86.7183°W)
Time: 07:40:23
(UTC+00:00)

ATLAS 2AS CENTAUR R/B - Pass Details

Date: 25 August 2019
Orbit: 927 x 1285 km, 63.7° (Epoch: 14 September)

Event Time Altitude Azimuth Distance (km) Brightness Sun altitude
Rises 07:40:17 0° 325° (NW) 4,150 6.0 -36.2°
Reaches altitude 10° 07:43:11 10° 321° (NW) 3,138 5.3 -35.9°
Enters shadow 07:46:08 25° 314° (NW) 2,162 4.3 -35.6°
